Home > Weather > Buenaventura > Past weeks

Flag for Colombia Past Weather in Buenaventura, Colombia — Yesterday and Last 2 Weeks

Now
68 °F

Partly cloudy.


Feels Like: 68 °F
Forecast: 76 / 89 °F
Wind: 3 mph from South

Location: Cali / Alfonso Bonillaaragon

Current Time: May 29, 2016 at 12:57:18 AM

Latest Report: May 29, 2016 at 12:00 AM


Visibility: 3 mi

Pressure: 30.10 "Hg

Humidity: 100%

Dew Point: 68 °F

Location of BuenaventuraLocation

Past Weather in Buenaventura — Graph

°F

Buenaventura Temperature Yesterday

Maximum temperature yesterday: 82 °F (at 1:00 PM)
Minimum temperature yesterday: 68 °F (at 1:00 AM)
Average temperature yesterday: 72 °F

High & Low Weather Summary for the Past Weeks

 TemperatureHumidityPressure
High91 °F (May 25, 2:00 PM)100% (May 14, 6:00 AM)30.12 "Hg (May 14, 6:00 AM)
Low64 °F (May 27, 3:00 AM)44% (May 25, 3:00 PM)29.65 "Hg (May 24, 7:00 AM)
Average77 °F80%29.98 "Hg
* Reported May 13 11:00 PM — May 28 11:00 PM, Buenaventura, Weather by CustomWeather, © 2016

Note: Actual official high and low records may vary slightly from our data, if they occured in-between our weather recording intervals... More about our weather records

Advertising

Buenaventura Weather History for the Previous 24 Hours

Scroll right to see more
 ConditionsComfort  
Time TempWeatherWind HumidityBarometerVisibility
11:00 PM
Sat, May 28
68 °FFog.5 mph100%30.11 "Hg1 mi
10:00 PM68 °FPartly cloudy.5 mph100%30.10 "Hg5 mi
9:00 PM68 °FPartly cloudy.2 mph100%30.09 "Hg5 mi
8:00 PM68 °FScattered showers. Partly cloudy.3 mph100%30.06 "Hg4 mi
7:00 PM68 °FScattered showers. Partly cloudy.5 mph100%30.04 "Hg4 mi
6:00 PM68 °FDrizzle. More clouds than sun.6 mph100%30.02 "Hg2 mi
5:00 PM72 °FThunderstorms. Broken clouds.6 mph88%29.99 "Hg4 mi
4:00 PM75 °FScattered showers. Broken clouds.7 mph83%29.97 "Hg3 mi
3:00 PM81 °FScattered showers. Broken clouds.8 mph74%29.97 "Hg5 mi
2:00 PM82 °FScattered clouds.3 mph66%29.99 "HgN/A
1:00 PM82 °FScattered clouds.2 mph66%30.02 "HgN/A
12:00 PM79 °FScattered showers. Partly sunny.3 mph74%30.05 "Hg5 mi
11:00 AM79 °FScattered showers. Broken clouds.2 mph74%30.07 "Hg4 mi
10:00 AM79 °FBroken clouds.3 mph74%30.08 "Hg5 mi
9:00 AM75 °FPartly sunny.6 mph83%30.08 "Hg5 mi
8:00 AM72 °FPartly sunny.2 mph94%30.05 "Hg6 mi
7:00 AM70 °FPartly sunny.2 mph94%30.03 "Hg6 mi
6:00 AM68 °FPartly sunny.N/A100%N/A6 mi
5:00 AM68 °FPassing clouds.N/A100%29.98 "HgN/A
4:00 AM68 °FPassing clouds.3 mph100%29.97 "HgN/A
3:00 AM70 °FPassing clouds.No wind100%29.99 "HgN/A
2:00 AM68 °FPassing clouds.No wind100%29.97 "HgN/A
1:00 AM68 °FPassing clouds.5 mph100%29.99 "HgN/A
12:00 AM70 °FPassing clouds.5 mph94%30.00 "HgN/A
Weather by CustomWeather, © 2016

See weather overviewHow to use our weather pages